sat.trackr.live / text

‹ back to catalog

STARLINK-11433 [DTC]

NORAD 62008 · 2024-213A

PAYLOAD ACTIVE UNKNOWN

§ Identity

Operator
Country
US
Launch date
2024-11-18
Launch site
AFWTR
Launch vehicle
Mass (kg)
RCS (m²)

Purposes: comms

External: N2YO · Heavens-Above · Gunter

§ Orbital elements

Epoch: 2026-05-25T01:38:23.299008Z

Period
91.73 min
Inclination
53.1581°
Eccentricity
0.0000936
Mean motion
15.69793249 rev/d
Perigee alt
358.9 km
Apogee alt
360.1 km
Semi-major
6,737.6 km
B*
1.7165e-3
RAAN
24.5686°
Arg perigee
89.2615°
Mean anomaly
270.8510°
Rev number
8,691

§ Raw data

STARLINK-11433 [DTC]1 62008U 24213A   26145.06832522  .00213543  00000+0  17165-2 0  99932 62008  53.1581  24.5686 0000936  89.2615 270.8510 15.69793249 86913

JSON: /api/v1/satellites/62008 · /tle

For live sub-satellite position, see the globe view (requires WebGL).

§ Visibility from observer

Set your observer location to see the next 7 days of passes ≥ 10°. The values pass through the URL so the page stays shareable.

No JS? Fill the form by hand. The geolocation button needs JavaScript.